CST,Max TemperatureF,Mean TemperatureF,Min TemperatureF,Max Dew PointF,MeanDew PointF,Min DewpointF,Max Humidity, Mean Humidity, Min Humidity, Max Sea Level PressureIn, Mean Sea Level PressureIn, Min Sea Level PressureIn, Max VisibilityMiles, Mean VisibilityMiles, Min VisibilityMiles, Max Wind SpeedMPH, Mean Wind SpeedMPH, Max Gust SpeedMPH,PrecipitationIn, CloudCover, Events, WindDirDegrees
2013-12-1,52,38,24,39,31,23,96,77,47,30.28,30.15,29.99,10,10,7,8,1,,0.00,4,,174
2013-12-2,47,44,42,45,42,38,99,88,71,29.98,29.89,29.82,10,9,3,7,0,,0.00,8,,166
2013-12-3,54,48,43,48,46,43,100,92,79,29.91,29.87,29.85,10,7,3,5,1,,0.00,7,,190
2013-12-4,65,54,43,57,52,43,100,83,70,29.98,29.93,29.89,10,8,3,17,3,30,0.00,6,Rain,185
2013-12-5,70,58,46,64,59,44,96,84,74,30.04,29.97,29.92,10,10,7,14,8,24,0.14,6,Rain,196
2013-12-6,46,40,35,45,39,33,98,93,86,30.25,30.08,29.98,10,7,1,12,4,18,1.67,8,Rain-Thunderstorm,14
2013-12-7,35,34,32,33,31,29,94,90,87,30.46,30.40,30.25,10,10,10,10,7,16,0.16,8,Rain,7
2013-12-8,45,38,32,44,37,30,100,96,89,30.36,30.18,30.05,10,6,0,7,0,,1.60,8,Rain-Snow-Thunderstorm,149
2013-12-9,48,42,36,46,40,32,100,91,81,30.20,30.12,30.04,10,9,2,10,2,18,0.25,8,Rain,14
2013-12-10,36,30,22,34,28,21,99,88,66,30.38,30.24,30.06,10,9,2,15,5,21,0.16,4,Rain-Snow,337
2013-12-11,45,33,21,30,24,20,99,79,44,30.45,30.40,30.31,10,8,0,9,1,,0.00,3,Fog,176
2013-12-12,36,28,21,23,15,1,89,62,23,30.53,30.45,30.39,10,10,10,10,4,,0.00,2,,331
2013-12-13,44,32,19,28,21,16,93,61,32,30.40,30.29,30.12,10,10,10,7,1,,0.00,2,,208
2013-12-14,46,41,36,46,38,21,100,85,47,30.15,29.92,29.79,10,8,2,14,3,18,0.24,8,Rain,248
2013-12-15,39,35,31,37,29,26,94,84,74,30.17,30.07,29.87,10,10,5,13,7,21,0.02,8,Rain,293
2013-12-16,45,36,27,32,29,26,99,84,59,30.22,30.15,30.08,10,9,5,14,3,17,0.00,2,,179
2013-12-17,54,41,28,36,30,18,99,72,44,30.24,30.10,29.96,10,9,5,20,4,25,0.00,3,Rain,279
2013-12-18,46,34,23,26,22,14,95,67,28,30.33,30.28,30.24,10,10,7,8,2,,0.00,1,,244
2013-12-19,57,42,26,30,23,18,90,55,22,30.28,30.20,30.13,10,10,10,10,2,18,0.00,0,,170
2013-12-20,57,46,35,46,35,26,77,56,41,30.16,30.11,30.04,10,10,7,14,5,20,0.00,6,Rain,170
2013-12-21,70,62,55,64,54,45,90,76,65,30.03,29.92,29.80,10,9,4,13,7,24,0.27,8,Rain,169
2013-12-22,67,62,56,63,54,50,99,85,74,30.04,29.95,29.82,10,8,2,16,8,31,1.76,7,Rain,196
2013-12-23,56,44,32,51,34,23,98,82,68,30.35,30.25,30.03,10,10,7,16,6,23,0.00,8,,348
2013-12-24,32,25,18,24,19,12,92,69,47,30.48,30.42,30.33,10,10,5,13,5,17,0.00,5,Snow,320
2013-12-25,41,29,17,26,19,12,94,70,44,30.44,30.37,30.28,10,10,10,12,2,,0.00,0,,184
2013-12-26,44,34,23,27,25,21,94,73,39,30.39,30.34,30.28,10,10,7,8,1,,0.00,2,,356
2013-12-27,51,36,20,26,23,18,96,75,30,30.48,30.41,30.37,10,9,7,7,0,,0.00,0,,159
2013-12-28,44,32,21,42,28,20,99,82,51,30.40,30.27,29.94,10,9,4,7,1,,0.31,3,Rain,234
2013-12-29,46,40,34,44,41,34,100,94,80,30.03,29.93,29.84,10,7,2,10,2,16,0.71,8,Rain,274
2013-12-30,40,36,31,39,31,28,100,86,76,30.22,30.16,30.02,10,10,4,9,4,,0.00,8,,4
2013-12-31,40,32,23,29,23,19,99,78,44,30.43,30.33,30.22,10,9,5,13,1,18,0.00,0,,303